2023/01/30 00:00:00,60.7,-4.0
2023/01/30 00:10:00,60.7,-3.7
2023/01/30 00:20:00,60.9,-3.8
2023/01/30 00:30:00,60.8,-3.9
2023/01/30 00:40:00,60.7,-2.9
2023/01/30 00:50:00,60.5,-3.6
2023/01/30 01:00:00,60.5,-3.1
2023/01/30 01:10:00,60.5,-2.8
2023/01/30 01:20:00,60.7,-3.2
2023/01/30 01:30:00,60.7,-2.5
2023/01/30 01:40:00,60.6,-2.4
2023/01/30 01:50:00,60.6,-1.9
2023/01/30 02:00:00,60.6,-2.1
2023/01/30 02:10:00,60.7,-2.6
2023/01/30 02:20:00,60.8,-2.8
2023/01/30 02:30:00,60.7,-2.9
2023/01/30 02:40:00,60.7,-2.6
2023/01/30 02:50:00,60.6,-2.7
2023/01/30 03:00:00,60.6,-2.3
2023/01/30 03:10:00,60.7,-2.6
2023/01/30 03:20:00,60.7,-2.1
2023/01/30 03:30:00,61.0,-2.3
2023/01/30 03:40:00,60.9,-2.1
2023/01/30 03:50:00,60.7,-2.3
2023/01/30 04:00:00,61.1,-2.5
2023/01/30 04:10:00,61.7,-2.4
2023/01/30 04:20:00,62.8,-2.2
2023/01/30 04:30:00,63.4,-2.4
2023/01/30 04:40:00,63.5,-2.1
2023/01/30 04:50:00,63.7,-2.2
2023/01/30 05:00:00,63.8,-2.2
2023/01/30 05:10:00,64.6,-2.1
2023/01/30 05:20:00,64.8,-2.1
2023/01/30 05:30:00,64.6,-1.9
2023/01/30 05:40:00,65.1,-1.8
2023/01/30 05:50:00,65.7,-1.7
2023/01/30 06:00:00,66.4,-2.2
2023/01/30 06:10:00,66.6,-1.6
2023/01/30 06:20:00,67.1,-1.9
2023/01/30 06:30:00,67.1,-2.3
2023/01/30 06:40:00,67.1,-2.2
2023/01/30 06:50:00,67.3,-2.8
2023/01/30 07:00:00,67.1,-3.0
2023/01/30 07:10:00,67.0,-2.8
2023/01/30 07:20:00,66.8,-3.5
2023/01/30 07:30:00,66.6,-3.5
2023/01/30 07:40:00,66.3,-4.1
2023/01/30 07:50:00,66.3,-3.5
2023/01/30 08:00:00,66.2,-3.3
2023/01/30 08:10:00,65.9,-2.5
2023/01/30 08:20:00,65.8,-2.0
2023/01/30 08:30:00,65.4,-2.0
2023/01/30 08:40:00,66.4,-1.2
2023/01/30 08:50:00,66.9,-1.2
2023/01/30 09:00:00,67.6,-1.3
2023/01/30 09:10:00,68.2,-0.4
2023/01/30 09:20:00,68.9, 0.2
2023/01/30 09:30:00,69.1, 1.4
2023/01/30 09:40:00,68.8, 2.4
2023/01/30 09:50:00,68.6, 1.8
2023/01/30 10:00:00,68.4, 1.4
2023/01/30 10:10:00,68.3, 0.7
2023/01/30 10:20:00,68.0, 0.6
2023/01/30 10:30:00,68.2, 1.9
2023/01/30 10:40:00,67.9, 0.6
2023/01/30 10:50:00,67.8, 0.9
2023/01/30 11:00:00,68.2, 1.1
2023/01/30 11:10:00,68.3, 3.7
2023/01/30 11:20:00,68.0, 1.6
2023/01/30 11:30:00,67.9, 0.9
2023/01/30 11:40:00,68.3, 0.7
2023/01/30 11:50:00,69.1, 1.0
2023/01/30 12:00:00,69.5, 0.4
2023/01/30 12:10:00,70.1, 0.8
2023/01/30 12:20:00,71.3, 0.8
2023/01/30 12:30:00,71.5, 1.4
2023/01/30 12:40:00,71.4, 1.2
2023/01/30 12:50:00,71.5, 0.4
2023/01/30 13:00:00,72.7, 0.3
2023/01/30 13:10:00,73.0, 1.1
2023/01/30 13:20:00,73.0, 2.1
2023/01/30 13:30:00,72.9, 1.8
2023/01/30 13:40:00,72.4, 0.4
2023/01/30 13:50:00,72.3, 0.9
2023/01/30 14:00:00,72.4, 1.1
2023/01/30 14:10:00,72.8, 6.9
2023/01/30 14:20:00,72.5, 3.3
2023/01/30 14:30:00,71.8, 2.1
2023/01/30 14:40:00,71.3, 2.2
2023/01/30 14:50:00,71.4, 2.4
2023/01/30 15:00:00,71.4, 1.1
2023/01/30 15:10:00,71.8, 1.0
2023/01/30 15:20:00,71.9, 2.4
2023/01/30 15:30:00,71.7, 2.7
2023/01/30 15:40:00,71.4, 2.1
2023/01/30 15:50:00,71.1, 2.0
2023/01/30 16:00:00,70.7, 2.2
2023/01/30 16:10:00,70.4, 0.6
2023/01/30 16:20:00,70.3, 1.9
2023/01/30 16:30:00,70.0, 1.0
2023/01/30 16:40:00,69.9, 0.0
2023/01/30 16:50:00,70.4, 0.0
2023/01/30 17:00:00,70.3, 0.1
2023/01/30 17:10:00,70.5,-0.1
2023/01/30 17:20:00,70.6,-0.2
2023/01/30 17:30:00,70.8,-0.6
2023/01/30 17:40:00,71.5,-0.6
2023/01/30 17:50:00,72.1,-0.3
2023/01/30 18:00:00,72.1,-0.8
2023/01/30 18:10:00,72.1,-0.6
2023/01/30 18:20:00,72.0,-0.3
2023/01/30 18:30:00,71.9,-0.5
2023/01/30 18:40:00,71.6,-0.7
2023/01/30 18:50:00,71.5,-0.8
2023/01/30 19:00:00,71.5,-0.5
2023/01/30 19:10:00,71.7,-1.0
2023/01/30 19:20:00,71.5,-0.6
2023/01/30 19:30:00,71.5,-0.8
2023/01/30 19:40:00,71.3,-1.1
2023/01/30 19:50:00,71.1,-0.9
2023/01/30 20:00:00,71.0,-0.7
2023/01/30 20:10:00,70.9,-0.6
2023/01/30 20:20:00,70.8,-0.8
2023/01/30 20:30:00,70.7,-1.2
2023/01/30 20:40:00,70.7,-1.1
2023/01/30 20:50:00,70.4,-1.1
2023/01/30 21:00:00,70.3,-1.1
2023/01/30 21:10:00,70.3,-0.8
2023/01/30 21:20:00,70.3,-1.1
2023/01/30 21:30:00,70.3,-0.8
2023/01/30 21:40:00,70.2,-0.8
2023/01/30 21:50:00,70.1,-0.8
2023/01/30 22:00:00,70.2,-0.9
2023/01/30 22:10:00,70.7,-0.8
2023/01/30 22:20:00,71.2,-1.2
2023/01/30 22:30:00,71.4,-0.7
2023/01/30 22:40:00,71.4,-1.1
2023/01/30 22:50:00,71.3,-1.4
2023/01/30 23:00:00,71.2,-1.2
2023/01/30 23:10:00,71.2,-0.8
2023/01/30 23:20:00,71.2,-2.4
2023/01/30 23:30:00,71.1,-1.3
2023/01/30 23:40:00,71.1,-1.3
2023/01/30 23:50:00,71.2,-1.2
